Regional Weather Roundup
Issued by NWS

Home | Current Version | Previous Version | Graphics & Text | Print | Product List | Glossary On
Versions: 1 2 3 4 5 6 7 8 9 10 11 12 13 14 15 16 17 18 19 20 21 22 23 24 25 26 27 28 29 30 31 32 33 34 35 36 37 38 39 40 41 42 43 44 45 46 47 48 49 50
773
ASUS43 KTOP 300059
RWRKS

WEATHER ROUNDUP FOR KANSAS
NATIONAL WEATHER SERVICE GOODLAND KS
800 PM CDT WED MAR 29 2017

NOTE:  "FAIR" INDICATES FEW OR NO CLOUDS BELOW 12,000 FEET WITH NO
SIGNIFICANT WEATHER AND/OR OBSTRUCTIONS TO VISIBILITY.

KSZ001>006-013>018-027>032-041>047-300200-
NORTHWEST KANSAS

CITY           SKY/WX    TMP DP  RH WIND       PRES   REMARKS
GOODLAND       CLOUDY    43  38  82 N14G26    29.93R
HAYS             N/A     40  38  93 NW23G31   29.78S WCI  30
HILL CITY      LGT RAIN  39  38  96 N18       29.87S FOG     WCI  30
RUSSELL        HVY RAIN  42  40  92 N25G33    29.74R
$$

KSZ061>065-074>080-084>089-300200-
SOUTHWEST KANSAS

CITY           SKY/WX    TMP DP  RH WIND       PRES   REMARKS
DODGE CITY     LGT RAIN  39  37  92 N24G35    29.82S WCI  28
ELKHART          N/A     43  34  71 NW10        N/A
GARDEN CITY    LGT RAIN  42  39  89 N22G35    29.87R
GREAT BEND     LGT RAIN  42  39  89 NW24G33   29.74S
LIBERAL        CLOUDY    45  37  76 N20       29.89S
$$

KSZ066>073-081>083-090>101-300200-
SOUTHEAST KANSAS

CITY           SKY/WX    TMP DP  RH WIND       PRES   REMARKS
CHANUTE        LGT RAIN  60  54  80 S9        29.63S
COFFEYVILLE    CLOUDY    61  51  70 SW16G22   29.65R
HUTCHINSON     LGT RAIN  44  42  93 N18G31    29.64R FOG
MEDICINE LODGE   N/A     43  39  86 NW22G36   29.70R
NEWTON         CLOUDY    48  47  96 N13       29.60S
PARSONS        CLOUDY    60  53  77 S9        29.65S
WICHITA INTL   LGT RAIN  50  49  96 NW15      29.58R
WICHITA JABRA  CLOUDY    51  49  92 S7        29.58S
WINFIELD       CLOUDY    50  47  89 SW22      29.63R
$$

KSZ007>012-019>026-033>040-048>060-102>105-300200-
NORTHEAST KANSAS

CITY           SKY/WX    TMP DP  RH WIND       PRES   REMARKS
CONCORDIA      LGT RAIN  42  42 100 N14       29.72S
EMPORIA        PTCLDY    58  53  84 S12       29.59S
LAWRENCE       LGT RAIN  56  55  97 NE13      29.65R
MANHATTAN      HVY RAIN  47  45  93 N9G22     29.64S FOG
OLATHE IND     TSTM      58  56  93 NE9       29.65S
OLATHE EXE     MOCLDY    57  57 100 NE12      29.64F
SALINA         LGT RAIN  45  43  93 N18       29.67S
TOPEKA BILLARD TSTM      57  56  96 NE8       29.62R
TOPEKA FORBES  CLOUDY    59  56  89 E10       29.61F
$$




USA.gov is the U.S. government's official web portal to all federal, state and local government web resources and services.